Regional Weather Roundup
Issued by NWS New Orleans/Baton Rouge, LA

Home | Current Version | Previous Version | Graphics & Text | Print | Product List | Glossary On
Versions: 1 2 3 4 5 6 7 8 9 10 11 12 13 14 15 16 17 18 19 20 21 22 23 24 25 26 27 28 29 30 31 32 33 34 35 36 37 38 39 40 41 42 43 44 45 46 47 48 49 50
368
ASUS44 KLIX 171605
RWRLIX
NEW ORLEANS REGIONAL WEATHER ROUNDUP
NATIONAL WEATHER SERVICE NEW ORLEANS LA
1100 AM CDT WED SEP 17 2014

NOTE: "FAIR" INDICATES FEW OR NO CLOUDS BELOW 12,000 FEET WITH NO
      SIGNIFICANT WEATHER AND/OR OBSTRUCTIONS TO VISIBILITY.
      SKY/WX - SKY CONDITION AND SIGNIFICANT WEATHER.
      TMP - AIR TEMPERATURE.     DP    - DEWPOINT TEMPERATURE.
      RH  - RELATIVE HUMIDITY.   PRES  - PRESSURE.
      HI  - HEAT INDEX.          WCI   - WIND CHILL INDEX.

*  THESE STATIONS ARE NOT NWS OR FAA STATIONS AND ARE NOT UNDER
   NWS QUALITY CONTROL.

LAZ038-040-048-061>063-065>067-069-171700-
SOUTHEAST LOUISIANA

CITY           SKY/WX    TMP DP  RH WIND       PRES   REMARKS
N.O. AUDUBON     N/A     91  78  66 MISG        N/A  HX 105
N.O. INTL ARPT PTSUNNY   84  72  67 N6        29.98S
N.O. LAKEFRONT MOSUNNY   83  72  69 N6        29.98F
N.O. DOWNTOWN* PTSUNNY   82  70  65 NW3       29.98S
SLIDELL        MOSUNNY   82  72  71 NE5       29.98S
BATON ROUGE    PTSUNNY   80  72  76 CALM      30.00S
BOOTHVILLE     SUNNY     85  74  69 CALM      29.98S
BELLE CHASSE   PTSUNNY   84  71  65 NE3       29.97S
BOGALUSA*        N/A     82  72  71 CALM      30.00S
GALLIANO*      NOT AVBL
NEW ROADS*       N/A     79  73  81 CALM      30.00S
GONZALES*      CLOUDY    79  77  92 CALM      29.99S
HAMMOND*       MOSUNNY   84  72  65 CALM      30.00F
HOUMA*         MOSUNNY   84  70  61 N3        29.99S
PORT FOURCHON* CLOUDY    84  73  70 CALM      30.01F

$$

MSZ070-080>082-171700-
SOUTHERN MISSISSIPPI

CITY           SKY/WX    TMP DP  RH WIND       PRES   REMARKS
MCCOMB         MOSUNNY   81  72  74 CALM      30.00S
GULFPORT       PTSUNNY   82  73  74 N5        29.97S
BILOXI         PTSUNNY   81  73  78 N2        29.97F
PASCAGOULA     MOSUNNY   84  73  69 VRB3      29.97S
STENNIS ARPT*  MOSUNNY   81  70  69 VRB3      29.98F

$$

COASTAL OBSERVATIONS
LAKE AND NEARSHORE STATIONS

STATION/POSITION TIME  TEMP    WIND        PRES    WAVE
                       AIR SEA DIR/SP/G            HT/PER
                 (UTC) (F)     (DEG/KT/KT) (MB)    (FT/S)
PASCAGOULA       1600   81     100/  1/  2 1014.4
WAVELAND YACHT   1600   78      10/  3/  4 1014.5
GRAND ISLE       1600   84 86   10/  4/  5 1015.8
SOUTHWEST PASS   1600   90 90  330/  5/  6 1015.6
NEW CANAL        1600   80 81   20/  5/  7 1015.6
SHELL BEACH      1600   80 80   20/  4/  6 1015.1

OFFSHORE STATIONS

STATION/POSITION TIME  TEMP    WIND        PRES    WAVE
                       AIR SEA DIR/SP/G            HT/PER
                 (UTC) (F)     (DEG/KT/KT) (MB)    (FT/S)
64 S DAUPHIN ISL 1458   82 85   80/  2/  2 1015.3    2/ 5

$$




USA.gov is the U.S. government's official web portal to all federal, state and local government web resources and services.